User: anonymous   Login
Location: Cabeza de los Veneras
(40.2000°N, 5.2000°W)
Time: 16:09:56
(UTC+00:00)
Language:

Okean 2 Rocket - Orbit

View from above orbital plane
View from above orbital plane
View from above satellite
View from above satellite

Ground track
Ground track

The orbit data is extracted from the following two-line orbital elements,

1 20511U 90018B   24165.85081153  .00000728  00000-0  90736-4 0  9992
2 20511  82.5220  95.1248 0017209  21.7826 338.4116 14.81065781828728
Epoch (UTC): 13 June 2024 20:25:10
Eccentricity: 0.0017209
inclination: 82.5220°
perigee height: 614 km
apogee height: 638 km
right ascension of ascending node: 95.1248°
argument of perigee: 21.7826°
revolutions per day: 14.81065781
mean anomaly at epoch: 338.4116°
orbit number at epoch: 82872

The dashed part of the orbit path shows where the satellite is in the earth's shadow,  

DLR